View from above orbital plane
|
View from above satellite
|
Ground track
|
The orbit data is extracted from the following two-line orbital elements,
1 38341U 12025E 21107.51641810 .00000101 00000-0 19431-4 0 9990
2 38341 98.5268 288.8351 0054838 336.4550 23.4153 14.84203658482461
Epoch (UTC): | 17 April 2021 12:23:38 |
Eccentricity: | 0.0054838 |
inclination: | 98.5268° |
perigee height: | 578 km |
apogee height: | 654 km |
right ascension of ascending node: | 288.8351° |
argument of perigee: | 336.4550° |
revolutions per day: | 14.84203658 |
mean anomaly at epoch: | 23.4153° |
orbit number at epoch: | 48246 |
The dashed part of the orbit path shows where the satellite is in the earth's shadow,
|
|